Content
SEND FEEDBACK

Daily
Averages
Monthly
Summary
United States of America

CHICAGO, ILLINOIS


Home > North America > United States > Illinois
Elevation: 674 feet     Latitude: 41 59N     Longitude: 087 54W

WEATHER
 
SELECT A DAY
Number of Records: 197,880;   Date Range: 7/8/95 - 10/22/14
 
SHARE

PRINT THIS DATA

[ ← Previous Day ]
WEATHER ALMANAC - MAY 23, 2013
[ Next Day → ]
[ °C ]   °F
Weather ElementAverageHighLow
Temperature49.4 °F53.6 °F (4:12 am)43 °F (9:52 pm)
Dewpoint42.6 °F51.8 °F (4:12 am)34 °F (7:52 pm)
Humidity78.2 %94 % (1:48 am)62 % (4:05 pm)
Barometer30.05 in30.32 in (11:52 pm)29.79 in (1:48 am)
Wind Speed11.6 mph17.3 mph (7:52 am)
Wind Gust28.8 mph (11:52 am)
Weather ElementAverage
Visibility9 mi
Wind DirectionENE (81.4 °)

Weather ElementTotal
Precipitation0.03 in
Heating Degree Days16.7 (Base 65)
Averaged from 28 records on May 23, 2013
WEATHER CONDITIONS BREAKOUT
WIND DIRECTION BREAKOUT
WEATHER BY HOUR - MAY 23, 2013
[ °C ]   °F
Local TimeTemperatureDewpointHumidityBarometerVisibilityWind DirectionWind SpeedGust SpeedPrecipitationEventsConditions
1:48 AM51.8 °F50.0 °F94 %29.79 in5.0 miNorth (10°)8.1 mph0.00 inRainLight Rain
1:52 AM52.0 °F50.0 °F93 %29.79 in4.0 miNorth (10°)10.4 mph0.00 inRainLight Rain
2:52 AM53.1 °F50.0 °F89 %29.80 in9.0 miNNE (30°)5.8 mph0.00 inOvercast
3:52 AM53.1 °F51.1 °F93 %29.81 in8.0 miNorth (360°)6.9 mphOvercast
4:12 AM53.6 °F51.8 °F94 %29.81 in10.0 miNorth (360°)5.8 mphOvercast
4:33 AM53.6 °F51.8 °F94 %29.82 in6.0 miNorth (10°)10.4 mphOvercast
4:52 AM53.1 °F51.1 °F93 %29.83 in5.0 miNorth (360°)10.4 mph0.00 inRainLight Rain
5:52 AM51.1 °F46.9 °F86 %29.86 in10.0 miNorth (10°)12.7 mph20.7 mph0.00 inOvercast
6:52 AM50.0 °F46.9 °F89 %29.90 in10.0 miNorth (350°)11.5 mph20.7 mph0.01 inRainLight Rain
7:52 AM48.9 °F46.0 °F90 %29.94 in10.0 miNorth (10°)17.3 mph24.2 mph0.01 inOvercast
8:52 AM48.0 °F45.0 °F89 %29.99 in6.0 miNorth (10°)12.7 mph23.0 mph0.01 inOvercast
9:52 AM48.0 °F44.1 °F86 %30.01 in9.0 miNorth (10°)13.8 mph23.0 mphOvercast
10:52 AM48.0 °F42.1 °F80 %30.04 in10.0 miNorth (10°)12.7 mph26.5 mphOvercast
10:59 AM48.2 °F42.8 °F82 %30.03 in10.0 miNorth (360°)13.8 mph25.3 mphOvercast
11:52 AM48.0 °F41.0 °F77 %30.07 in10.0 miNorth (10°)16.1 mph28.8 mphOvercast
12:52 PM50.0 °F39.9 °F68 %30.09 in10.0 miNNE (20°)12.7 mph21.9 mphOvercast
1:52 PM52.0 °F39.9 °F63 %30.12 in10.0 miNNE (20°)10.4 mph23.0 mphOvercast
2:52 PM52.0 °F39.9 °F63 %30.13 in10.0 miNNE (20°)13.8 mphOvercast
3:52 PM51.1 °F41.0 °F68 %30.17 in10.0 miNE (40°)13.8 mph20.7 mphMostly Cloudy
4:05 PM51.8 °F39.2 °F62 %30.17 in10.0 miNE (50°)17.3 mph20.7 mphScattered Clouds
4:52 PM51.1 °F39.9 °F66 %30.19 in10.0 miNE (50°)13.8 mph21.9 mphClear
5:52 PM50.0 °F37.9 °F63 %30.21 in10.0 miNE (40°)13.8 mph19.6 mphClear
6:52 PM46.9 °F35.1 °F63 %30.24 in10.0 miNNE (30°)15.0 mph21.9 mphClear
7:52 PM46.0 °F34.0 °F63 %30.26 in10.0 miNNE (20°)9.2 mphClear
8:52 PM44.1 °F34.0 °F68 %30.27 in10.0 miNNE (20°)9.2 mphClear
9:52 PM43.0 °F34.0 °F71 %30.30 in10.0 miNNE (20°)6.9 mphClear
10:52 PM43.0 °F34.0 °F71 %30.31 in10.0 miNNE (20°)8.1 mphClear
11:52 PM43.0 °F34.0 °F71 %30.32 in10.0 miNNE (20°)11.5 mphClear
Hourly data recorded from KPWK, located miles away from Chicago, Illinois







STORIES FROM OUR PARTNERS